TimeCDT,TemperatureF,Dew PointF,Humidity,Sea Level PressureIn,VisibilityMPH,Wind Direction,Wind SpeedMPH,Gust SpeedMPH,PrecipitationIn,Events,Conditions,WindDirDegrees,DateUTC
12:15 AM,-9999,-9999,N/A,30.06,7.0,NW,3.5,-,N/A,,Clear,310,2013-10-23 05:15:00
12:35 AM,-9999,-9999,N/A,30.06,5.0,NW,4.6,-,N/A,,Haze,320,2013-10-23 05:35:00
12:55 AM,-9999,-9999,N/A,30.06,10.0,NW,6.9,-,N/A,,Clear,320,2013-10-23 05:55:00
1:15 AM,-9999,-9999,N/A,30.07,10.0,NW,5.8,-,N/A,,Clear,320,2013-10-23 06:15:00
1:35 AM,-9999,-9999,N/A,30.07,10.0,NNW,3.5,-,N/A,,Clear,330,2013-10-23 06:35:00
1:55 AM,-9999,-9999,N/A,30.07,10.0,Calm,Calm,-,N/A,,Clear,0,2013-10-23 06:55:00
2:15 AM,56.3,56.3,100,30.07,10.0,Calm,Calm,-,N/A,,Clear,0,2013-10-23 07:15:00
2:35 AM,55.6,55.6,100,30.06,10.0,NNW,3.5,-,N/A,,Clear,340,2013-10-23 07:35:00
2:55 AM,55.8,55.8,100,30.06,10.0,Calm,Calm,-,N/A,,Clear,0,2013-10-23 07:55:00
3:15 AM,-9999,-9999,N/A,30.06,10.0,Calm,Calm,-,N/A,,Clear,0,2013-10-23 08:15:00
3:35 AM,-9999,-9999,N/A,30.06,7.0,Calm,Calm,-,N/A,,Clear,0,2013-10-23 08:35:00
3:55 AM,-9999,-9999,N/A,30.06,10.0,Calm,Calm,-,N/A,,Clear,0,2013-10-23 08:55:00
4:15 AM,-9999,-9999,N/A,30.06,7.0,Calm,Calm,-,N/A,,Clear,0,2013-10-23 09:15:00
4:35 AM,-9999,-9999,N/A,30.06,5.0,Calm,Calm,-,N/A,,Haze,0,2013-10-23 09:35:00
4:55 AM,-9999,-9999,N/A,30.07,3.0,Calm,Calm,-,N/A,,Clear,0,2013-10-23 09:55:00
5:15 AM,-9999,-9999,N/A,30.07,4.0,Calm,Calm,-,N/A,,Haze,0,2013-10-23 10:15:00
5:35 AM,-9999,-9999,N/A,30.07,7.0,Calm,Calm,-,N/A,,Clear,0,2013-10-23 10:35:00
5:55 AM,-9999,-9999,N/A,30.08,7.0,Calm,Calm,-,N/A,,Clear,0,2013-10-23 10:55:00
6:15 AM,-9999,-9999,N/A,30.09,0.8,Calm,Calm,-,N/A,,Mist,0,2013-10-23 11:15:00
6:35 AM,-9999,-9999,N/A,30.10,2.5,Calm,Calm,-,N/A,,Clear,0,2013-10-23 11:35:00
6:55 AM,-9999,-9999,N/A,30.10,0.2,Calm,Calm,-,N/A,Fog,Fog,0,2013-10-23 11:55:00
7:15 AM,-9999,-9999,N/A,30.10,0.5,Calm,Calm,-,N/A,Fog,Fog,0,2013-10-23 12:15:00
7:35 AM,-9999,-9999,N/A,30.11,2.5,Calm,Calm,-,N/A,,Clear,0,2013-10-23 12:35:00
7:55 AM,-9999,-9999,N/A,30.11,5.0,Calm,Calm,-,N/A,,Haze,0,2013-10-23 12:55:00
8:15 AM,-9999,-9999,N/A,30.12,10.0,Calm,Calm,-,N/A,,Clear,0,2013-10-23 13:15:00
8:35 AM,-9999,-9999,N/A,30.12,10.0,Calm,Calm,-,N/A,,Clear,0,2013-10-23 13:35:00
8:55 AM,-9999,-9999,N/A,30.13,10.0,Calm,Calm,-,N/A,,Clear,0,2013-10-23 13:55:00
9:15 AM,63.0,55.2,76,30.14,10.0,Calm,Calm,-,N/A,,Clear,0,2013-10-23 14:15:00
9:35 AM,66.4,52.5,61,30.14,10.0,WNW,3.5,-,N/A,,Clear,300,2013-10-23 14:35:00
9:55 AM,67.5,49.3,52,30.14,10.0,NW,5.8,-,N/A,,Clear,310,2013-10-23 14:55:00
10:15 AM,69.1,47.8,47,30.14,10.0,NNW,5.8,-,N/A,,Clear,330,2013-10-23 15:15:00
10:35 AM,70.0,45.9,42,30.14,10.0,NNW,4.6,-,N/A,,Clear,330,2013-10-23 15:35:00
10:55 AM,70.9,46.0,41,30.14,10.0,NNW,5.8,-,N/A,,Clear,330,2013-10-23 15:55:00
11:15 AM,72.0,45.5,39,30.14,10.0,North,4.6,-,N/A,,Clear,360,2013-10-23 16:15:00
11:35 AM,73.0,45.7,38,30.14,10.0,North,5.8,-,N/A,,Clear,350,2013-10-23 16:35:00
11:55 AM,73.9,43.7,34,30.13,10.0,NNW,3.5,-,N/A,,Clear,340,2013-10-23 16:55:00
12:15 PM,75.2,43.0,32,30.13,10.0,NNE,6.9,-,N/A,,Clear,30,2013-10-23 17:15:00
12:35 PM,75.9,42.8,31,30.13,10.0,North,6.9,-,N/A,,Clear,360,2013-10-23 17:35:00
12:55 PM,76.6,41.7,29,30.12,10.0,North,4.6,-,N/A,,Clear,360,2013-10-23 17:55:00
1:15 PM,76.6,39.4,26,30.11,10.0,North,4.6,-,N/A,,Clear,360,2013-10-23 18:15:00
1:35 PM,78.1,38.3,24,30.10,10.0,North,5.8,-,N/A,,Clear,350,2013-10-23 18:35:00
1:55 PM,78.1,37.9,24,30.09,10.0,North,6.9,-,N/A,,Clear,350,2013-10-23 18:55:00
2:15 PM,79.0,34.3,20,30.08,10.0,North,8.1,-,N/A,,Clear,10,2013-10-23 19:15:00
2:35 PM,79.0,32.4,18,30.08,10.0,NNW,5.8,-,N/A,,Clear,340,2013-10-23 19:35:00
2:55 PM,79.3,33.3,19,30.08,10.0,North,8.1,-,N/A,,Clear,10,2013-10-23 19:55:00
3:15 PM,79.5,32.5,18,30.08,10.0,North,6.9,-,N/A,,Clear,350,2013-10-23 20:15:00
3:35 PM,79.3,31.6,18,30.07,10.0,North,9.2,16.1,N/A,,Clear,350,2013-10-23 20:35:00
3:55 PM,79.2,32.7,19,30.08,10.0,North,11.5,-,N/A,,Clear,350,2013-10-23 20:55:00
4:15 PM,79.0,32.5,19,30.08,10.0,North,6.9,-,N/A,,Clear,350,2013-10-23 21:15:00
4:35 PM,78.6,34.9,21,30.08,10.0,North,8.1,-,N/A,,Clear,360,2013-10-23 21:35:00
4:55 PM,77.9,34.7,21,30.08,10.0,North,6.9,-,N/A,,Clear,360,2013-10-23 21:55:00
5:15 PM,77.0,33.8,21,30.08,10.0,North,9.2,-,N/A,,Clear,350,2013-10-23 22:15:00
5:35 PM,75.6,36.1,24,30.09,10.0,North,6.9,-,N/A,,Clear,360,2013-10-23 22:35:00
5:55 PM,73.9,40.3,30,30.09,10.0,North,4.6,-,N/A,,Clear,10,2013-10-23 22:55:00
6:15 PM,70.9,45.1,40,30.10,10.0,Calm,Calm,-,N/A,,Clear,0,2013-10-23 23:15:00
6:35 PM,69.8,45.5,42,30.10,10.0,North,3.5,-,N/A,,Clear,10,2013-10-23 23:35:00
6:55 PM,68.0,46.4,46,30.10,10.0,NNE,3.5,-,N/A,,Clear,20,2013-10-23 23:55:00
7:15 PM,65.8,47.5,52,30.11,10.0,Calm,Calm,-,N/A,,Clear,0,2013-10-24 00:15:00
7:35 PM,62.8,50.9,65,30.11,10.0,Calm,Calm,-,N/A,,Clear,0,2013-10-24 00:35:00
7:55 PM,61.7,51.6,69,30.12,10.0,North,3.5,-,N/A,,Clear,360,2013-10-24 00:55:00
8:15 PM,61.0,52.3,73,30.13,10.0,Calm,Calm,-,N/A,,Clear,0,2013-10-24 01:15:00
8:35 PM,60.8,51.1,70,30.13,10.0,Calm,Calm,-,N/A,,Clear,0,2013-10-24 01:35:00
8:55 PM,60.1,52.0,75,30.14,10.0,Calm,Calm,-,N/A,,Clear,0,2013-10-24 01:55:00
9:15 PM,59.9,51.6,74,30.14,10.0,Calm,Calm,-,N/A,,Clear,0,2013-10-24 02:15:00
9:35 PM,59.5,51.8,76,30.14,10.0,Calm,Calm,-,N/A,,Clear,0,2013-10-24 02:35:00
9:55 PM,57.4,54.5,90,30.14,10.0,Calm,Calm,-,N/A,,Clear,0,2013-10-24 02:55:00
10:15 PM,56.7,56.7,100,30.14,10.0,Calm,Calm,-,N/A,,Clear,0,2013-10-24 03:15:00
10:35 PM,57.9,57.7,99,30.14,10.0,Calm,Calm,-,N/A,,Clear,0,2013-10-24 03:35:00
10:55 PM,57.0,57.0,100,30.14,10.0,Calm,Calm,-,N/A,,Clear,0,2013-10-24 03:55:00
11:15 PM,55.8,55.8,100,30.14,10.0,Calm,Calm,-,N/A,,Clear,0,2013-10-24 04:15:00
11:35 PM,55.6,55.6,100,30.14,10.0,Calm,Calm,-,N/A,,Clear,0,2013-10-24 04:35:00
11:55 PM,55.0,55.0,100,30.14,10.0,Calm,Calm,-,N/A,,Clear,0,2013-10-24 04:55:00